Regional Weather Roundup
Issued by NWS Cleveland, OH

Home | Current Version | Previous Version | Graphics & Text | Print | Product List | Glossary On
Versions: 1 2 3 4 5 6 7 8 9 10 11 12 13 14 15 16 17 18 19 20 21 22 23 24 25 26 27 28 29 30 31 32 33 34 35 36 37 38 39 40 41 42 43 44 45 46 47 48 49 50
000
ASUS41 KCLE 261202
RWRCLE
OHIO REGIONAL WEATHER ROUNDUP
NATIONAL WEATHER SERVICE CLEVELAND, OH
800 AM EDT SAT JUL 26 2014

NOTE: "FAIR" INDICATES FEW OR NO CLOUDS BELOW 12,000 FEET WITH NO
SIGNIFICANT WEATHER AND/OR OBSTRUCTIONS TO VISIBILITY.

OHZ001>008-015>018-024>027-034-035-043-044-261300-
   NORTHWEST OHIO

CITY           SKY/WX    TMP DP  RH WIND       PRES   REMARKS
DEFIANCE       SUNNY     64  58  80 S3        29.93S
FINDLAY        MOSUNNY   65  58  78 S8        29.94S
TOLEDO EXPRESS CLOUDY    62  58  86 CALM      29.93S
TOLEDO EXEC    PTSUNNY   65  58  78 S5        29.94S
LIMA           SUNNY     66  59  78 S7        29.95R
$$

OHZ009>014-019>023-028>033-038-089-261300-
   NORTHEAST OHIO

CITY           SKY/WX    TMP DP  RH WIND       PRES   REMARKS
CLE-HOPKINS    SUNNY     66  59  78 S7        29.98S
CLE-LAKEFRONT  SUNNY     68  60  75 S9        29.95S
CUY CO. ARPT   SUNNY     68  63  83 S8        29.97F
LORAIN-ELYRIA  SUNNY     68  59  73 SW5       29.97S
ASHTABULA      PTSUNNY   64  58  80 S5        29.99R
AKRON-CANTON   SUNNY     67  60  78 S6        29.98F
WOOSTER        SUNNY     66  60  81 S5        29.99S
MANSFIELD      SUNNY     66  59  78 S6        29.98F
YOUNGSTOWN     MOSUNNY   63  58  83 S7        29.99S
$$

OHZ042-051>053-060>062-070>072-077>081-261300-
  SOUTHWEST OHIO

CITY           SKY/WX    TMP DP  RH WIND       PRES   REMARKS
CINC-COVINGTON MOSUNNY   68  62  81 S7        29.97S
CINC-LUNKEN    MOSUNNY   66  64  93 CALM      29.97F
HAMILTON       MOSUNNY   69  64  84 CALM      29.97S
DAYTON         PTSUNNY   69  61  75 S9        29.97S
WRIGHT-PAT AFB PTSUNNY   68  62  79 S8        29.96F
DAYTON GENERAL PTSUNNY   67  62  84 S8        29.96S
WILMINGTON     MOSUNNY   67  61  81 S5        29.98S
$$

OHZ036-037-039>041-045>050-054>059-063>069-073>076-082>088-261300-
  CENTRAL AND SOUTHEAST OHIO

CITY           SKY/WX    TMP DP  RH WIND       PRES   REMARKS
COLUMBUS       MOSUNNY   70  60  70 S5        29.97F
OSU AIRPORT    SUNNY     68  61  78 S8        29.97F
BOLTON FIELD   SUNNY     64  63  94 S5        29.98F
RICKENBACK AFB MOSUNNY   69  59  70 S6        29.98S
NEWARK         MOSUNNY   67  62  84 CALM      29.98F
MARION         SUNNY     65  60  84 S8        29.96F
LANCASTER      SUNNY     68  62  81 SE5       29.99F
ZANESVILLE     SUNNY     68  60  75 S5        29.99F
NEW PHILLY     PTSUNNY   66  62  87 SE3       29.99F
$$



USA.gov is the U.S. government's official web portal to all federal, state and local government web resources and services.